Tracking 18794 objects as of 21-September-2017
HD Live streaming from Space Station
objects crossing your sky now

COSMOS 1412

Track COSMOS 1412 now!
10-day predictions
COSMOS 1412 is classified as:


NORAD ID: 13600
Int'l Code: 1982-099A
Perigee: 893.2 km
Apogee: 1,005.0 km
Inclination: 64.8 °
Period: 103.9 minutes
Semi major axis: 7320 km
RCS: 3.2535 m2 (large)
Launch date: October 2, 1982
Source: Commonwealth of Independent States (former USSR) (CIS)
Launch site: TYURATAM MISSILE AND SPACE COMPLEX (TTMTR)
aabbcc
Your satellite tracking list
Your tracking list is empty





NASA's NSSDC Master Catalog

Two Line Element Set (TLE):
1 13600U 82099A   17264.06140123 -.00000097  00000-0 -50963-5 0  9991
2 13600  64.8130  73.9603 0076346 256.8200 243.2807 13.86201785757579
Source of the keplerian elements: AFSPC